Regional Weather Roundup
Issued by NWS

Home | Current Version | Previous Version | Text Only | Print | Product List | Glossary On
Versions: 1 2 3 4 5 6 7 8 9 10 11 12 13 14 15 16 17 18 19 20 21 22 23 24 25 26 27 28 29 30 31 32 33 34 35 36 37 38 39 40 41 42 43 44 45 46 47 48 49 50
000
ASUS43 KFSD 092310
RWRSD

WEATHER ROUNDUP FOR SOUTH DAKOTA
NATIONAL WEATHER SERVICE SIOUX FALLS SD
500 PM CST FRI DEC 09 2016

NOTE: "FAIR" INDICATES FEW OR NO CLOUDS BELOW 12,000 FEET WITH NO
SIGNIFICANT WEATHER AND/OR OBSTRUCTIONS TO VISIBILITY.


SDZ001>005-009-010-012>017-100000-
NORTHWEST AND NORTH CENTRAL SOUTH DAKOTA

CITY           SKY/WX    TMP DP  RH WIND       PRES   REMARKS
BUFFALO          N/A      1  -5  75 E9        30.28S WCI -14
FAITH            N/A     -5  -8  87 NE8       30.41F WCI -20
MOBRIDGE       CLEAR     -1  -8  72 N8        30.49S WCI -15
$$

SDZ012>016-024>037-041>051-057-063-072>074-100000-
SOUTHWEST AND SOUTH CENTRAL SOUTH DAKOTA

CITY           SKY/WX    TMP DP  RH WIND       PRES   REMARKS
RAPID CTY ARPT CLOUDY     2  -4  76 NE3       30.34F
PIERRE         FLURRIES   3  -3  76 NE10      30.49S WCI -12
CUSTER         CLOUDY     6  -2  69 SW3       30.06F
ELLSWORTH AFB  CLOUDY     2  -4  78 VRB1      30.33S
PHILIP         LGT SNOW   5   0  79 NE10      30.45S WCI -10
PINE RIDGE     CLOUDY     4   0  83 N5        30.32S WCI  -5
SPEARFISH      FAIR      -2  -6  84 NE8       30.25R WCI -17
WINNER         CLOUDY    11   5  77 NE10      30.44R HAZE    WCI  -3
$$

SDZ004>011-016>023-039-040-100000-
NORTHEAST SOUTH DAKOTA

CITY           SKY/WX    TMP DP  RH WIND       PRES   REMARKS
ABERDEEN       CLOUDY     6  -3  66 N6        30.54S WCI  -4
WATERTOWN      CLOUDY     3  -3  76 N10       30.47R HAZE    WCI -12
BROOKINGS      LGT SNOW   8   3  80 N7        30.47S WCI  -3
SISSETON         N/A      4  -2  76 N7        30.54R WCI  -8
$$

SDZ017-020-022-023-036>040-048>070-100000-
SOUTHEAST SOUTH DAKOTA

CITY           SKY/WX    TMP DP  RH WIND       PRES   REMARKS
SIOUX FALLS    CLOUDY    14   7  73 NE5       30.48S WCI   6
HURON          LGT SNOW   5   0  79 NE7       30.54R WCI  -7
CHAMBERLAIN    LGT SNOW  12   7  80 E3        30.49R
MITCHELL       LGT SNOW  10   5  80 N9        30.53R WCI  -3
YANKTON        CLOUDY    14   5  67 E6        30.47S WCI   5
$$

ABBREVIATIONS USED IN REMARKS
   TC - TEMPERATURE IN CELSIUS
  WCI - WIND CHILL INDEX
   HX - HEAT INDEX
  VSB - VISIBILITY




USA.gov is the U.S. government's official web portal to all federal, state and local government web resources and services.